RH
91 90 88 88 88 88 86 84 84 85 84 82 78 70 67 67 67 68 67 70 71 71 72 73 74 74 57 18 15 21 53 48 32 29 28 26 24 34 35 34 32 35 32 21 19 18 16
92 90 90 89 89 89 88 85 85 86 86 83 78 72 71 70 68 66 68 71 73 74 75 75 73 73 53 21 21 40 45 36 32 29 30 26 23 22 26 25 22 22 21 21 19 18 18
81 87 94 91 91 90 88 86 86 86 87 82 78 74 74 70 68 66 70 72 75 77 77 75 72 69 56 26 35 46 48 35 36 29 24 26 24 24 23 26 24 24 26 19 15 17 17
78 82 85 91 91 90 88 88 87 89 88 82 75 75 74 71 68 71 72 74 78 80 80 77 73 71 31 39 46 46 43 25 35 32 31 26 24 25 27 25 25 25 27 27 19 17 17
74 76 82 84 86 92 90 89 88 90 87 82 77 76 74 72 73 73 74 78 80 77 78 76 76 68 34 42 33 28 32 23 23 22 25 21 25 29 26 31 37 34 28 28 25 19 21
74 75 80 83 84 90 90 90 88 90 87 84 79 74 71 71 73 78 82 78 81 78 73 64 67 48 30 29 25 26 24 25 25 26 23 24 28 32 33 33 33 29 32 29 33 26 25
74 76 78 79 83 85 94 91 89 90 88 85 79 74 69 72 70 78 67 55 35 39 62 28 30 43 30 26 28 24 24 26 26 28 29 33 29 29 29 33 26 30 33 34 29 24 28
80 80 79 80 80 83 84 87 89 90 87 85 79 71 70 70 69 75 57 37 31 33 29 39 41 39 36 32 32 26 24 27 37 38 46 46 43 31 33 34 37 38 43 41 33 29 30
81 82 78 78 80 83 83 86 93 91 87 85 78 73 70 72 72 62 53 48 47 43 33 38 38 37 33 32 31 25 25 38 42 50 52 45 34 36 40 40 44 40 51 49 46 34 31
82 82 83 83 83 83 83 94 94 89 86 84 78 75 76 76 72 61 59 56 54 50 38 32 38 30 31 31 32 22 25 36 50 53 50 53 46 49 50 52 47 52 44 44 45 48 54
84 85 83 81 83 80 84 89 91 88 86 83 76 73 77 72 69 58 51 68 59 54 13 25 31 24 30 33 35 32 31 43 52 50 52 50 54 58 60 50 51 55 44 46 49 53 55
86 87 86 88 91 82 83 86 89 87 83 79 77 78 78 78 78 61 68 66 60 36 17 31 28 35 41 40 44 42 48 45 44 54 54 53 44 47 48 46 43 42 51 51 57 61 72
85 88 92 94 92 84 87 92 89 85 81 81 81 80 79 74 78 71 72 63 39 40 28 35 40 45 47 55 54 57 63 66 70 75 71 63 57 52 47 56 55 53 62 60 63 83 57
88 92 96 94 89 86 92 90 87 81 82 83 82 84 76 69 72 77 71 57 34 31 32 39 50 53 54 63 63 65 68 69 75 74 80 77 64 46 47 47 40 61 53 48 54 46 44
88 96 93 92 88 90 91 88 83 82 83 85 84 94 87 83 79 72 67 65 30 35 36 54 57 58 66 64 72 74 70 69 75 84 94 85 78 51 44 45 47 51 57 41 54 49 63
88 97 91 95 92 90 88 85 83 84 86 80 93 85 75 81 82 70 72 43 40 42 50 51 68 66 79 71 79 75 74 62 70 73 77 86 97 58 54 54 52 53 46 72 64 83 90
88 90 96 92 91 89 88 87 85 85 80 76 91 93 82 82 72 72 86 49 53 46 49 62 71 79 78 87 86 73 71 62 62 66 63 79 98 68 62 66 64 74 72 65 62 76 88
89 89 87 90 92 90 89 87 86 84 82 82 96 98 82 82 93 85 72 50 56 51 52 60 65 70 81 89 84 83 78 77 54 62 74 70 100 94 78 54 56 68 70 63 79 70 78
88 90 90 88 88 87 88 87 85 84 85 96 95 93 80 75 94 89 61 55 50 54 52 57 71 71 80 94 83 91 80 62 61 62 75 88 91 82 59 63 52 78 79 91 70 77 94
82 85 85 88 89 88 89 89 87 85 82 84 95 98 82 81 77 69 64 58 55 47 52 53 68 76 76 88 91 90 84 63 63 59 65 89 87 80 89 96 92 92 81 70 82 86 91
83 85 85 87 88 88 88 86 80 83 78 79 93 90 78 95 80 69 64 55 54 51 47 56 72 58 70 84 80 96 84 65 57 64 64 88 99 100 96 96 88 96 94 89 89 97 92
82 84 88 86 85 82 81 82 83 81 76 77 97 78 73 71 69 67 68 53 48 49 56 55 54 56 67 60 52 62 66 67 70 66 71 79 93 100 97 98 89 96 96 96 85 84 92
83 79 81 81 81 81 82 81 81 80 75 85 86 70 67 66 62 67 74 60 53 63 60 49 56 59 62 60 57 51 52 54 55 65 77 87 97 89 90 92 81 78 97 95 86 83 85
84 73 76 80 77 78 79 80 79 78 80 85 88 69 75 76 56 58 56 47 55 54 63 56 59 56 54 63 69 74 73 69 69 68 66 81 91 91 86 96 89 97 98 92 90 92 82
84 75 71 76 76 77 78 79 80 78 81 86 90 72 72 88 61 61 58 64 63 62 63 60 54 56 70 66 68 64 66 71 73 75 69 75 88 93 88 82 92 94 86 91 92 92 85
84 76 73 74 76 79 78 79 80 80 78 88 95 90 75 66 75 57 65 60 64 65 60 64 63 71 66 66 70 74 73 75 76 63 61 74 81 97 80 78 86 88 77 74 78 86 80
83 77 74 74 72 76 78 80 80 81 78 85 94 92 80 95 81 66 65 69 71 69 66 68 75 75 67 77 81 78 81 77 78 74 77 70 76 93 85 83 83 80 84 79 91 91 78
82 81 80 79 76 77 78 81 84 80 80 84 94 91 79 95 80 77 67 78 76 66 65 66 74 78 83 80 74 80 86 85 87 78 82 76 83 86 91 88 89 80 92 83 93 90 79
82 83 82 82 80 78 82 82 85 82 80 81 92 89 78 84 81 85 75 70 63 59 80 86 76 87 79 80 78 79 89 91 81 95 73 81 72 76 82 85 90 89 88 76 74 80 82
Wind_Speed
24 24 23 23 22 21 20 19 18 17 14 13 11 10 8 7 7 7 6 7 8 10 9 10 10 14 5 3 2 2 11 10 2 2 4 2 3 2 2 2 6 7 3 5 9 12 13
14 24 25 25 24 23 23 22 20 18 17 15 12 12 10 8 8 8 7 9 10 9 8 8 6 8 3 2 2 4 7 4 4 2 1 0 1 2 1 2 3 4 10 12 11 15 14
17 14 22 24 25 26 25 23 22 20 18 16 15 13 10 9 8 7 8 9 11 11 10 6 3 1 1 3 1 5 3 1 1 2 1 2 1 2 2 4 3 6 17 19 12 3 5
19 18 19 22 28 27 26 25 24 22 20 18 16 14 11 9 7 8 7 9 13 14 9 6 5 2 2 2 2 3 1 1 1 2 2 3 2 2 3 2 5 8 8 7 4 14 7
20 23 23 23 24 25 27 27 25 23 22 18 15 13 10 8 8 8 6 9 7 3 8 10 3 1 2 2 2 1 1 3 5 1 1 4 1 0 2 2 6 1 13 16 16 9 16
23 24 24 26 27 26 32 30 27 26 22 20 16 14 10 8 6 8 7 1 12 8 4 3 3 1 2 1 2 3 1 2 2 4 3 3 3 1 1 3 7 12 16 18 19 7 17
25 28 29 29 29 28 26 30 29 27 26 23 19 16 12 10 6 5 1 6 1 1 2 1 2 1 3 6 2 1 1 3 2 4 1 2 4 8 9 12 16 16 18 22 25 26 18
25 28 30 33 32 31 31 33 31 30 28 25 20 17 13 10 2 3 3 3 4 3 3 1 2 4 3 2 2 3 1 2 1 4 3 1 8 9 7 9 10 11 13 22 21 20 14
30 32 36 35 35 34 31 37 33 33 31 26 23 18 12 6 4 4 3 4 3 4 2 2 3 3 2 4 1 1 2 2 2 2 5 5 3 3 6 11 13 14 15 17 17 22 25
34 37 38 37 38 38 33 29 34 35 32 30 25 21 14 6 5 4 3 2 4 2 3 4 4 3 3 2 1 2 2 2 2 1 2 6 4 4 4 10 11 16 9 12 14 14 9
38 39 40 40 43 43 39 37 36 35 34 31 25 22 15 10 7 5 2 6 5 1 4 4 3 5 2 3 1 1 1 2 3 3 2 3 3 6 8 8 11 7 5 12 14 14 15
36 41 43 37 33 40 40 40 41 39 37 32 26 23 19 5 2 4 5 6 2 3 7 3 2 3 4 3 2 5 3 4 1 0 4 16 3 5 5 3 11 3 8 12 9 6 6
37 45 32 27 29 36 38 43 41 39 37 33 29 24 14 7 6 6 5 4 3 5 2 5 3 3 3 3 2 5 3 3 3 5 4 5 4 2 4 3 1 5 4 3 2 3 5
46 38 21 23 30 37 40 42 42 38 37 30 26 21 11 4 7 9 3 3 5 3 3 4 4 5 3 3 2 4 0 3 1 2 3 4 7 5 5 5 1 7 4 2 6 5 11
48 19 16 22 32 37 43 43 41 40 37 33 24 4 1 4 7 3 3 2 5 5 8 7 5 3 2 2 3 2 2 2 0 1 4 3 7 4 6 4 4 3 6 3 5 8 6
40 14 13 23 37 42 41 40 39 39 36 33 9 5 2 7 5 3 3 3 3 4 8 4 4 1 4 0 2 2 1 1 1 2 6 2 9 6 1 0 9 14 1 1 2 5 5
28 41 34 27 36 38 38 37 37 38 32 25 9 7 1 5 3 3 4 4 4 5 7 4 4 5 4 3 2 2 0 2 2 2 2 4 5 7 6 6 4 3 4 6 4 4 4
20 26 31 34 31 30 31 33 36 35 31 16 4 6 3 4 3 1 4 7 6 6 4 4 4 4 4 5 3 3 3 4 3 1 4 1 4 6 12 16 3 2 4 9 4 3 1
16 21 24 29 33 30 25 28 32 32 16 4 5 5 2 1 4 3 2 3 5 4 4 4 3 3 3 5 3 3 4 5 4 1 1 3 2 6 8 3 5 4 2 4 7 1 2
14 18 21 22 24 28 30 30 30 27 8 3 5 6 2 1 1 6 7 5 6 4 4 5 5 5 4 2 1 3 3 3 3 3 5 4 1 1 3 4 9 8 10 6 3 2 6
15 16 19 21 24 24 24 24 23 17 6 2 3 3 5 5 3 5 5 4 11 6 3 3 3 4 5 3 2 3 4 4 2 0 2 1 2 4 8 11 16 15 17 12 7 4 4
16 14 14 19 19 20 20 16 12 9 6 2 5 6 3 4 7 10 3 4 6 4 5 2 5 6 5 4 4 3 4 3 2 3 3 2 2 2 2 5 9 16 17 9 13 15 13
16 17 14 16 15 17 16 13 9 7 3 2 1 1 5 2 3 5 3 5 6 8 4 5 6 4 3 4 5 7 6 4 4 3 4 2 3 2 0 5 4 5 10 12 14 14 5
14 15 15 15 15 14 12 10 7 5 2 1 1 2 5 3 4 4 7 7 9 4 7 4 4 3 2 3 2 3 2 5 6 8 7 4 3 3 2 4 3 3 4 11 15 11 9
15 15 14 14 13 12 8 7 5 2 6 3 1 2 4 4 6 8 11 8 7 5 4 4 1 2 2 2 2 4 1 2 3 5 2 7 3 1 2 3 4 5 4 3 4 7 9
16 16 14 14 13 10 7 5 5 6 7 3 3 2 4 8 1 5 6 4 5 4 2 2 3 2 2 2 2 2 2 2 2 1 5 3 4 2 3 3 4 4 6 5 5 4 7
17 16 16 15 12 9 6 4 5 6 8 3 3 3 4 6 1 2 4 4 4 4 3 1 2 2 1 2 2 1 3 0 2 2 3 3 3 5 3 3 3 6 9 3 3 3 6
15 15 16 15 13 10 7 6 6 6 5 4 1 3 3 4 2 2 3 5 3 2 4 3 2 2 2 3 2 2 2 2 2 2 2 1 1 2 1 1 3 9 1 1 6 8 7
16 15 16 15 13 10 8 7 7 4 7 3 4 3 3 7 4 2 3 3 3 6 6 2 3 3 2 3 1 3 2 1 3 2 2 1 2 2 2 3 3 4 8 6 5 9 6
Wind_Direction
222 227 221 220 219 218 216 216 211 208 216 213 212 220 241 256 271 284 301 308 303 311 327 326 336 335 346 55 132 9 343 338 343 35 49 54 74 111 277 326 304 243 266 304 304 305 300
289 225 222 220 219 216 212 216 212 209 201 202 206 211 212 236 260 280 302 303 299 303 300 303 325 337 357 112 112 7 337 340 31 59 40 107 127 147 211 264 261 316 296 302 307 295 280
299 301 237 220 223 216 212 213 209 205 200 200 198 209 219 220 249 278 295 301 302 295 284 264 242 65 36 143 28 325 325 344 296 352 310 213 164 179 105 280 306 285 300 302 288 276 318
300 295 285 268 223 218 215 209 206 202 196 198 206 202 210 234 254 269 293 307 306 293 269 209 179 143 205 147 297 333 9 53 221 278 231 337 119 107 198 314 344 308 282 331 101 316 351
296 297 288 274 265 222 215 209 203 201 192 191 198 200 203 224 258 274 308 320 312 56 120 139 99 268 129 303 138 342 250 337 334 13 258 100 35 261 82 332 309 351 292 293 308 311 285
289 295 287 276 268 252 212 207 200 194 186 182 186 192 193 230 249 291 317 205 112 90 116 142 94 118 308 106 314 342 329 57 26 335 49 73 49 246 73 230 279 288 283 284 289 272 288
280 288 282 271 261 253 230 206 199 189 177 173 178 177 193 204 222 295 52 110 35 306 292 189 139 303 340 298 284 68 329 89 63 57 57 358 257 243 246 233 262 275 284 289 279 285 294
276 284 280 270 258 248 244 218 199 182 171 167 171 172 196 195 187 284 142 183 189 147 284 205 236 281 245 258 17 331 105 76 158 296 145 280 253 274 237 256 260 276 282 271 286 291 302
273 283 278 262 253 244 240 217 189 172 164 161 164 168 188 177 168 128 158 209 141 111 127 217 192 199 182 161 180 281 149 101 213 191 217 223 231 317 282 269 271 259 256 276 278 309 302
290 282 272 259 247 234 225 202 177 169 161 156 161 158 173 157 95 141 217 155 133 90 96 199 205 174 142 186 93 240 183 141 177 255 262 256 285 259 251 240 242 277 225 258 286 306 302
293 284 274 263 244 228 214 192 174 165 158 151 157 154 159 180 138 152 183 122 117 81 260 152 154 139 13 85 49 154 302 85 192 183 105 280 238 228 243 245 204 252 267 282 282 284 298
298 296 282 260 231 214 208 187 168 164 155 148 158 151 148 124 73 125 130 118 102 87 232 153 109 117 94 27 14 333 17 32 105 175 226 255 261 246 227 271 222 222 293 285 260 255 261
320 304 268 232 212 197 192 163 160 157 146 150 147 149 153 143 154 156 151 102 134 195 69 158 131 94 120 41 44 5 360 51 65 6 333 293 221 248 207 256 136 190 264 316 285 197 258
334 301 237 217 193 181 166 155 152 148 140 145 139 138 156 142 124 138 121 164 179 111 144 116 108 101 104 47 46 322 185 87 109 98 259 1 330 188 181 230 239 182 197 276 305 307 314
346 272 212 195 177 164 149 149 148 143 140 136 130 97 75 139 128 116 119 177 181 181 136 131 92 116 100 110 147 22 25 113 101 107 342 308 255 255 228 184 213 144 200 199 279 273 266
8 357 167 135 141 137 141 143 142 134 136 137 123 102 136 137 149 94 107 173 150 139 111 98 134 190 139 237 106 64 356 217 129 155 104 297 286 258 306 222 238 230 165 170 176 288 287
42 34 45 111 126 129 134 137 134 129 124 118 107 95 124 137 122 72 164 192 129 115 102 125 139 126 126 157 161 116 198 279 185 295 271 241 235 279 311 219 273 160 206 211 243 211 282
82 85 71 55 80 102 118 128 127 128 134 125 121 124 159 150 127 145 179 160 118 116 99 101 99 101 132 160 163 139 213 236 216 5 318 263 282 278 278 300 230 208 236 209 238 214 167
94 106 112 121 121 114 112 122 128 138 148 128 99 92 76 131 145 168 233 106 97 127 125 128 116 98 95 167 119 197 221 256 255 328 281 328 7 301 332 25 38 315 229 236 248 186 99
90 111 116 119 127 135 137 139 147 165 149 78 115 120 117 153 233 144 140 115 111 77 87 96 110 94 116 108 349 147 256 278 3 224 285 185 175 189 55 352 330 299 255 280 178 195 113
125 126 117 129 136 140 142 148 153 174 194 85 53 139 171 169 199 138 101 114 132 123 80 112 74 130 150 128 131 216 242 297 297 132 13 95 247 206 118 82 31 20 41 66 79 60 64
116 105 119 133 136 133 136 141 146 156 145 100 126 133 70 92 130 110 88 150 135 110 122 146 131 157 170 159 164 206 173 213 261 350 1 83 264 242 225 200 82 31 25 59 84 88 98
135 146 142 131 127 125 121 118 137 152 90 81 52 54 105 35 105 111 155 152 152 123 34 132 139 137 170 217 213 233 213 234 256 338 319 332 306 275 76 304 225 42 14 40 65 46 44
148 148 137 126 122 113 113 115 123 161 120 103 217 108 92 113 103 126 130 119 131 108 125 133 128 148 127 314 238 86 173 233 249 259 229 286 294 237 212 261 62 116 90 79 70 61 81
163 153 147 133 123 112 108 97 102 82 174 91 248 89 108 97 108 109 117 113 97 78 86 140 112 86 314 28 89 131 85 129 190 227 182 236 241 220 153 57 111 137 38 338 12 62 32
165 155 150 140 127 122 127 118 102 97 84 104 55 339 96 120 99 115 99 123 123 113 109 99 33 353 54 69 79 149 151 114 159 6 144 161 54 201 168 154 201 67 340 318 292 87 40
168 155 150 139 141 147 120 106 73 53 61 98 68 358 85 100 9 90 120 135 115 104 106 91 20 51 359 91 96 135 128 134 180 341 334 345 6 36 37 98 109 6 320 291 263 91 87
162 158 146 144 145 149 140 102 73 68 50 75 179 5 108 89 54 31 126 127 96 106 138 160 107 357 68 85 140 144 118 94 136 40 311 23 331 83 200 129 179 0 181 308 97 99 107
158 157 146 146 145 144 121 100 86 79 52 80 69 1 358 78 109 23 49 36 88 159 128 94 128 120 146 109 143 119 127 67 140 193 23 261 354 128 13 96 82 24 80 78 128 131 127